Home   Weather   Shymkent   Past weeks

Flag for Kazakhstan Past Weather in Shymkent, Kazakhstan — Yesterday and Last 2 Weeks

Now
64 °F

Clear.


Feels Like: 64 °F
Forecast: 60 / 87 °F
Wind: 6 mph from Southeast

Location: Shymkent Airport

Current Time: Sep 25, 2016 at 2:59:52 AM

Latest Report: Sep 25, 2016 at 2:30 AM


Visibility: 10 mi

Pressure: 29.74 "Hg (28.03 "Hg at 506m altitude)

Humidity: 40%

Dew Point: 39 °F

Location of ShymkentLocation

Past Weather in Shymkent — Graph

°F

Shymkent Temperature Yesterday

Maximum temperature yesterday: 91 °F (at 1:00 PM)
Minimum temperature yesterday: 61 °F (at 7:00 AM)
Average temperature yesterday: 77 °F

High & Low Weather Summary for the Past Weeks

 TemperatureHumidityPressure
High99 °F (Sep 16, 3:00 PM)82% (Sep 13, 11:30 AM)30.12 "Hg (Sep 13, 11:30 AM)
Low52 °F (Sep 12, 6:30 AM)9% (Sep 16, 2:00 PM)29.71 "Hg (Sep 24, 3:00 PM)
Average73 °F36%29.90 "Hg
* Reported Sep 10 1:00 AM — Sep 25 1:30 AM, Shymkent, Weather by CustomWeather, © 2016

Note: Actual official high and low records may vary slightly from our data, if they occured in-between our weather recording intervals... More about our weather records

Advertising

Shymkent Weather History for the Previous 24 Hours

Scroll right to see more
 ConditionsComfort  
Time TempWeatherWind HumidityBarometerVisibility
1:30 AM
Sun, Sep 25
66 °FClear.6 mph40%29.74 "Hg10 mi
1:00 AM66 °FClear.6 mph46%29.74 "Hg10 mi
12:30 AM66 °FClear.6 mph46%29.74 "Hg10 mi
12:00 AM68 °FClear.8 mph40%29.74 "Hg4 mi
11:30 PM
Sat, Sep 24
70 °FClear.6 mph38%29.74 "Hg4 mi
11:00 PM70 °FClear.3 mph38%29.74 "Hg4 mi
10:30 PM68 °FClear.1 mph40%29.74 "Hg4 mi
10:00 PM72 °FClear.1 mph33%29.74 "Hg4 mi
9:30 PM75 °FClear.3 mph25%29.74 "Hg10 mi
9:00 PM75 °FClear.3 mph25%29.74 "Hg10 mi
8:30 PM79 °FPassing clouds.3 mph23%29.74 "HgN/A
8:00 PM81 °FClear.6 mph23%29.74 "Hg10 mi
7:30 PM81 °FClear.1 mph28%29.74 "Hg10 mi
7:00 PM82 °FSunny.3 mph26%29.74 "Hg10 mi
6:30 PM84 °FSunny.3 mph27%29.71 "Hg10 mi
6:00 PM86 °FSunny.3 mph25%29.71 "Hg10 mi
5:30 PM90 °FSunny.8 mph20%29.71 "Hg10 mi
5:00 PM90 °FSunny.13 mph18%29.71 "Hg10 mi
4:30 PM91 °FSunny.10 mph17%29.71 "Hg10 mi
4:00 PM91 °FPassing clouds.3 mph15%29.71 "HgN/A
3:30 PM91 °FPassing clouds.3 mph17%29.71 "HgN/A
3:00 PM91 °FPassing clouds.3 mph18%29.71 "HgN/A
2:30 PM91 °FPassing clouds.6 mph17%29.74 "HgN/A
2:00 PM91 °FPassing clouds.8 mph17%29.74 "HgN/A
1:30 PM91 °FSunny.1 mph16%29.74 "Hg10 mi
1:00 PM91 °FSunny.1 mph17%29.74 "Hg10 mi
12:30 PM90 °FSunny.3 mph18%29.74 "Hg10 mi
12:00 PM90 °FPassing clouds.3 mph21%29.77 "HgN/A
11:30 AM88 °FSunny.1 mph21%29.77 "Hg10 mi
11:00 AM84 °FSunny.1 mph29%29.77 "Hg10 mi
10:30 AM82 °FSunny.1 mph30%29.77 "Hg10 mi
10:00 AM82 °FSunny.1 mph28%29.77 "Hg10 mi
9:30 AM79 °FSunny.1 mph28%29.77 "Hg10 mi
9:00 AM75 °FSunny.1 mph34%29.77 "Hg10 mi
8:30 AM70 °FSunny.No wind43%29.77 "Hg10 mi
8:00 AM64 °FSunny.1 mph49%29.77 "Hg10 mi
7:30 AM61 °FSunny.3 mph59%29.77 "Hg10 mi
7:00 AM61 °FClear.3 mph55%29.77 "Hg10 mi
6:30 AM63 °FClear.3 mph56%29.77 "Hg10 mi
6:00 AM63 °FClear.3 mph52%29.77 "Hg10 mi
5:30 AM63 °FClear.3 mph52%29.77 "Hg10 mi
5:00 AM63 °FClear.3 mph52%29.77 "Hg10 mi
4:30 AM68 °FClear.1 mph43%29.77 "Hg10 mi
4:00 AM68 °FClear.1 mph40%29.77 "Hg10 mi
3:30 AM68 °FClear.1 mph43%29.77 "Hg10 mi
3:00 AM68 °FClear.3 mph40%29.77 "Hg10 mi
2:30 AM66 °FClear.3 mph43%29.77 "Hg10 mi
2:00 AM68 °FClear.3 mph40%29.77 "Hg10 mi
Weather by CustomWeather, © 2016

See weather overviewHow to use our weather pages